Home   Weather   Piešťany   Past weeks

Flag for Slovakia Past Weather in Piešťany, Slovakia — Yesterday and Last 2 Weeks

59 °F

Passing clouds.

Feels Like: 57 °F
Forecast: 34 / 51 °F
Wind: 10 mph from North

Location: Piestany

Current Time: Oct 26, 2016 at 3:24:14 PM

Latest Report: Oct 26, 2016 at 3:00 PM

Visibility: N/A

Pressure: 30.27 "Hg

Humidity: 55%

Dew Point: 43 °F

Location of PiešťanyLocation

Past Weather in Piešťany — Graph


Piešťany Temperature Yesterday

Maximum temperature yesterday: 61 °F (at 2:00 PM)
Minimum temperature yesterday: 55 °F (at 8:30 PM)
Average temperature yesterday: 58 °F

High & Low Weather Summary for the Past Weeks

High64 °F (Oct 16, 1:00 PM)100% (Oct 18, 7:30 PM)30.36 "Hg (Oct 18, 7:30 PM)
Low32 °F (Oct 22, 6:00 AM)58% (Oct 14, 11:30 PM)29.86 "Hg (Oct 12, 3:30 AM)
Average50 °F82%30.09 "Hg
* Reported Oct 11 2:00 PM — Oct 26 2:00 PM, Piešťany, Weather by CustomWeather, © 2016

Note: Actual official high and low records may vary slightly from our data, if they occured in-between our weather recording intervals... More about our weather records


Piešťany Weather History for the Previous 24 Hours

Scroll right to see more
Time TempWeatherWind HumidityBarometerVisibility
2:00 PM
Wed, Oct 26
59 °FScattered clouds.13 mph59%30.27 "HgN/A
1:30 PM59 °FPassing clouds.10 mph59%30.27 "HgN/A
1:00 PM59 °FPassing clouds.10 mph59%30.27 "HgN/A
12:30 PM59 °FPassing clouds.12 mph59%30.27 "HgN/A
12:00 PM59 °FPassing clouds.12 mph59%30.27 "HgN/A
11:30 AM57 °FPassing clouds.10 mph63%30.27 "HgN/A
11:00 AM55 °FPassing clouds.10 mph67%30.27 "HgN/A
10:30 AM55 °FPassing clouds.16 mph67%30.27 "HgN/A
10:00 AM54 °FSunny.15 mph72%30.27 "Hg10 mi
9:30 AM52 °FSunny.12 mph82%30.27 "Hg10 mi
9:00 AM50 °FSunny.10 mph82%30.24 "Hg10 mi
8:30 AM50 °FSunny.12 mph82%30.24 "Hg10 mi
8:00 AM48 °FPassing clouds.10 mph87%30.24 "HgN/A
7:30 AM50 °FScattered clouds.13 mph82%30.21 "HgN/A
7:00 AM48 °FPassing clouds.10 mph87%30.21 "HgN/A
6:30 AM48 °FClear.2 mph87%30.21 "Hg10 mi
6:00 AM50 °FClear.6 mph88%30.21 "Hg10 mi
5:30 AM50 °FMostly cloudy.7 mph94%30.18 "HgN/A
5:00 AM52 °FMostly cloudy.8 mph88%30.18 "HgN/A
4:30 AM54 °FOvercast.8 mph88%30.18 "HgN/A
4:00 AM54 °FMostly cloudy.12 mph88%30.18 "HgN/A
3:30 AM54 °FOvercast.9 mph88%30.18 "HgN/A
3:00 AM54 °FOvercast.12 mph94%30.18 "HgN/A
2:30 AM55 °FOvercast.12 mph88%30.15 "HgN/A
2:00 AM54 °FMostly cloudy.7 mph100%30.15 "HgN/A
1:30 AM54 °FFog.3 mph100%30.15 "Hg0 mi
1:00 AM54 °FFog.3 mph100%30.18 "Hg0 mi
12:30 AM55 °FFog.1 mph94%30.18 "Hg0 mi
12:00 AM55 °FFog.1 mph94%30.18 "Hg1 mi
11:30 PM
Tue, Oct 25
55 °FDrizzle. Fog.3 mph100%30.18 "Hg1 mi
11:00 PM55 °FDrizzle. Fog.2 mph100%30.18 "Hg1 mi
10:30 PM55 °FFog.3 mph100%30.18 "Hg1 mi
10:00 PM55 °FFog.1 mph100%30.18 "Hg2 mi
9:30 PM55 °FFog.1 mph100%30.18 "Hg2 mi
9:00 PM55 °FFog.1 mph94%30.18 "Hg3 mi
8:30 PM55 °FFog.1 mph100%30.18 "Hg3 mi
8:00 PM57 °FLight rain. Mostly cloudy.2 mph94%30.15 "Hg4 mi
7:30 PM57 °FDrizzle. Overcast.5 mph94%30.18 "Hg4 mi
7:00 PM57 °FPartly cloudy.3 mph94%30.18 "Hg4 mi
6:30 PM57 °FPassing clouds.2 mph94%30.18 "Hg5 mi
6:00 PM59 °FPassing clouds.3 mph88%30.15 "Hg6 mi
5:30 PM59 °FPartly sunny.5 mph88%30.15 "HgN/A
5:00 PM59 °FBroken clouds.6 mph88%30.15 "HgN/A
4:30 PM59 °FMore clouds than sun.5 mph88%30.15 "HgN/A
4:00 PM59 °FMore clouds than sun.6 mph88%30.15 "HgN/A
3:30 PM61 °FMore clouds than sun.5 mph83%30.15 "HgN/A
3:00 PM61 °FMostly cloudy.3 mph83%30.15 "HgN/A
Weather by CustomWeather, © 2016

See weather overviewHow to use our weather pages